Wind_Speed
49 48 47 45 42 41 41 40 39 39 40 41 43 45 47 49 50 51 52 54 54 55 54 54 53 53 52 52 51 51 51 52 52 52 51 49 47 46 45 46 47 45 44 43 44 44 44 45 44 44 44 44 43 42 40 39 38 37 38 37 37 37 38 40 40 36 32 34 36 36 37 37 37 37 38 38 38 40 41 42 42 43 43 44 46
55 53 51 48 44 42 43 42 40 39 40 40 41 43 44 46 47 49 50 51 51 52 53 53 53 53 52 51 51 51 51 52 52 52 51 49 47 47 47 47 47 46 45 44 44 45 46 46 45 45 45 45 44 43 41 40 40 39 39 39 38 38 39 40 41 40 35 34 36 37 37 38 37 37 39 40 40 41 43 44 44 44 44 45 46
62 59 56 53 50 47 46 46 45 43 42 41 42 43 44 45 47 48 48 49 50 51 51 51 51 51 51 50 50 50 50 51 51 51 50 49 48 47 48 48 47 46 45 44 44 46 47 46 46 46 47 46 45 44 43 42 41 41 41 41 41 40 41 42 43 42 39 36 36 37 38 38 38 38 40 41 42 42 44 45 45 45 45 46 47
67 65 61 58 57 55 52 51 50 49 46 45 45 46 45 45 46 48 48 49 49 50 50 50 49 49 49 48 48 48 49 49 50 50 50 50 49 49 49 48 47 46 45 45 45 47 47 47 47 48 48 47 46 45 44 44 43 43 43 43 43 42 43 44 44 42 42 39 37 38 39 40 39 40 42 43 43 44 45 46 46 46 46 47 49
66 68 67 65 63 62 60 57 56 54 52 50 49 49 48 47 46 47 48 49 49 49 49 48 48 49 48 47 47 47 48 48 49 50 50 50 50 50 49 47 46 46 46 46 46 47 48 48 48 49 49 47 46 46 46 46 45 45 45 45 45 45 45 46 44 44 44 42 39 39 40 40 41 43 44 44 45 46 46 46 47 48 48 49 50
61 65 68 69 68 67 66 63 61 59 57 55 53 51 51 50 48 47 48 48 49 49 48 48 48 48 48 47 48 47 47 48 48 49 49 50 50 50 49 47 47 47 47 47 47 48 48 49 49 49 49 48 48 48 48 48 48 47 48 47 47 47 47 46 46 45 45 44 43 42 41 42 44 45 45 46 47 47 47 48 50 49 49 50 51
57 60 64 68 70 70 69 67 65 62 60 58 56 54 52 51 50 48 48 48 48 48 49 48 48 48 48 48 48 47 47 47 48 48 49 50 51 50 48 48 48 48 48 48 48 48 49 49 49 49 49 49 49 50 50 50 50 50 49 49 49 49 49 48 48 47 46 46 45 44 44 45 46 46 47 48 48 48 48 50 51 50 49 51 53
56 57 60 63 67 69 70 69 68 65 62 61 59 56 53 52 51 49 48 48 48 49 49 49 50 49 48 47 47 47 47 47 47 48 49 50 50 50 49 49 49 49 49 48 48 48 49 49 49 50 50 51 51 52 52 51 52 51 51 51 51 51 51 50 50 49 48 48 47 46 47 48 48 48 49 49 50 50 51 52 51 50 51 54 54
57 57 58 59 61 65 67 68 67 66 64 63 61 58 55 53 51 50 49 49 49 50 50 51 51 49 48 47 47 47 47 47 48 48 49 50 50 50 50 50 50 50 49 49 49 49 49 50 50 51 51 52 53 53 53 53 53 53 52 53 53 53 53 52 52 51 50 50 49 48 49 50 50 50 51 51 52 52 53 53 52 51 53 55 54
58 58 57 58 59 60 62 64 63 63 62 62 61 59 57 55 53 51 50 50 51 52 52 51 51 49 49 48 48 48 48 49 49 49 50 50 51 51 51 51 51 51 50 50 50 50 51 51 52 52 53 54 54 54 54 54 54 54 54 54 54 55 55 55 54 52 52 52 50 50 51 52 51 52 53 54 55 55 55 54 53 53 54 55 55
58 59 58 58 58 59 59 60 60 59 58 58 59 59 58 56 54 52 51 51 52 53 53 53 52 51 50 50 50 50 50 51 52 51 51 51 51 52 52 52 53 52 52 52 51 51 52 53 53 54 55 55 56 56 56 56 56 55 55 56 56 57 57 56 55 53 53 53 52 52 53 53 53 54 55 56 57 58 57 56 55 53 55 56 55
58 59 60 59 59 59 59 58 58 58 57 56 56 57 57 57 56 55 53 52 53 54 54 54 54 53 52 51 51 52 52 54 54 54 53 53 53 53 53 54 54 54 54 53 53 54 54 54 55 55 56 57 58 58 58 58 57 57 57 58 58 58 58 57 55 55 55 54 53 54 55 54 55 56 57 58 59 59 59 58 56 55 56 56 54
59 60 60 60 60 59 59 59 59 59 59 58 57 56 56 56 56 55 54 53 53 54 55 56 56 56 54 54 53 54 55 55 55 55 55 55 55 55 55 55 55 56 56 55 55 56 56 56 56 57 58 59 59 60 60 59 59 59 59 60 60 59 58 57 56 55 55 55 55 56 56 56 57 57 58 59 60 60 60 59 58 58 57 55 53
61 62 62 61 61 61 60 60 60 61 61 60 59 57 56 55 55 55 54 53 53 54 55 56 57 58 57 57 56 56 56 57 57 57 57 57 57 57 56 56 56 56 56 57 57 58 58 58 58 59 60 60 61 61 61 61 61 61 61 61 61 59 58 57 56 55 55 55 56 58 58 58 58 58 59 60 61 61 61 61 61 59 56 54 53
60 62 64 64 64 63 63 62 62 62 63 63 62 59 58 57 56 56 56 55 54 54 55 56 57 58 59 59 59 58 58 59 59 59 59 59 59 58 58 58 57 57 57 57 58 59 59 60 60 61 61 62 62 62 62 62 63 63 63 62 61 60 59 58 57 56 56 57 59 60 60 59 58 59 60 62 62 62 62 61 61 58 55 54 54
60 62 64 66 66 66 65 64 64 64 64 65 65 63 61 59 59 59 59 59 58 57 57 57 57 58 59 59 60 61 61 61 61 61 62 62 61 61 60 59 59 58 58 58 59 59 60 61 61 62 63 63 63 63 63 64 64 64 64 63 62 61 60 59 58 57 58 60 62 63 62 60 60 61 62 63 63 62 62 60 58 56 55 55 55
65 66 66 67 67 68 67 66 65 65 65 67 68 68 66 64 62 62 62 62 62 62 61 60 59 59 59 59 60 61 62 63 63 63 64 64 64 63 63 62 62 61 60 60 61 61 61 62 62 63 63 63 64 64 65 65 65 65 64 63 63 62 61 60 59 60 62 64 65 64 63 63 63 63 63 63 62 62 61 58 56 55 55 55 55
67 67 69 69 69 69 69 68 66 65 65 67 69 70 70 69 67 65 65 64 64 64 64 63 63 62 61 61 61 61 62 63 63 64 64 65 65 65 66 65 64 64 63 63 64 64 64 64 64 65 65 65 65 66 66 66 66 65 65 64 64 63 62 61 62 64 66 67 67 66 65 64 63 62 62 62 61 60 59 56 55 55 56 55 55
66 66 68 69 69 69 70 70 69 67 65 66 67 70 71 71 70 69 68 67 66 66 65 65 65 65 64 64 63 62 63 64 64 64 65 65 66 66 66 66 65 65 65 65 65 65 65 66 66 67 67 67 67 67 67 66 65 65 65 65 65 65 65 66 67 69 70 69 68 67 64 62 62 62 61 60 59 58 56 55 55 56 56 56 58
68 67 68 69 69 69 69 70 71 70 69 66 66 68 70 71 72 71 71 70 69 68 68 67 67 67 66 66 65 64 64 64 64 65 65 66 66 66 66 66 65 65 65 65 65 65 65 66 67 68 68 68 68 68 68 67 67 67 67 67 68 68 68 69 70 69 69 67 65 64 62 62 62 61 59 58 57 56 55 55 56 57 58 59 61
70 70 68 68 70 70 70 70 70 70 70 68 66 66 68 69 70 71 71 71 71 70 70 69 69 69 69 68 68 67 67 66 66 66 66 66 67 67 67 66 67 67 66 66 66 66 67 67 68 69 70 70 70 69 70 70 70 70 70 69 69 68 68 68 67 66 66 64 63 63 63 62 61 59 57 56 56 56 56 57 58 60 61 63 64
72 73 71 68 68 69 69 69 68 68 69 68 67 66 65 66 67 69 70 71 71 71 70 70 70 70 71 71 71 71 70 69 68 68 68 68 68 68 68 68 69 69 69 68 69 69 69 70 70 70 71 70 70 70 70 70 70 70 70 69 68 68 67 66 66 65 65 64 63 63 62 61 59 58 57 57 57 59 60 62 63 65 66 67 68
70 74 74 73 71 71 71 70 67 66 67 68 68 68 66 65 65 66 67 68 69 69 69 69 70 71 71 72 73 73 73 73 72 71 71 70 70 70 70 71 71 71 71 71 71 71 72 72 72 73 73 72 72 72 71 71 71 71 70 69 68 68 68 67 66 65 64 64 63 61 59 58 58 58 59 60 61 63 65 66 67 68 68 68 69
68 71 73 73 73 74 74 73 69 66 66 68 69 69 68 66 65 65 65 66 67 68 68 68 69 70 71 72 73 73 74 74 73 73 73 73 72 72 73 73 73 73 73 73 73 73 74 74 75 75 75 74 74 73 73 73 72 71 70 69 68 68 67 67 66 65 64 63 61 59 58 58 59 60 62 64 66 68 69 70 70 70 70 70 70
70 72 72 71 71 72 73 73 71 67 67 68 70 71 71 69 66 65 64 63 64 65 66 68 69 70 71 71 71 72 72 73 73 73 73 73 73 73 73 74 74 74 74 74 74 75 75 75 76 76 76 75 75 74 73 72 71 70 69 68 67 66 66 65 64 64 63 61 60 60 60 61 63 65 66 68 69 71 72 73 72 72 72 72 71
64 68 70 68 69 71 71 72 72 69 67 68 71 73 73 72 69 66 64 62 61 61 62 64 66 68 70 71 72 72 72 72 72 72 73 73 73 74 74 74 74 74 74 75 75 75 76 76 76 76 75 74 73 72 71 70 69 68 67 66 65 65 64 64 64 64 64 63 63 63 64 65 67 68 69 70 70 71 73 73 73 72 72 72 71
58 62 65 66 68 70 68 67 68 68 68 69 71 73 74 73 71 69 66 64 63 61 61 61 62 63 66 68 70 71 71 71 71 72 72 72 73 73 73 73 73 73 73 74 74 73 73 73 73 72 71 70 69 69 68 68 67 67 66 66 66 66 66 66 67 67 67 67 67 67 68 69 69 70 70 70 71 71 72 72 72 71 70 69 69
56 55 58 62 65 66 64 62 63 65 66 67 69 71 72 73 72 71 69 67 66 64 63 63 62 62 63 64 66 67 68 68 69 69 70 70 70 71 71 71 71 70 70 70 70 69 69 68 68 68 68 68 68 68 69 69 69 68 68 68 68 68 68 69 70 70 70 70 70 71 72 72 72 72 72 72 72 72 71 71 70 69 68 68 68
52 50 51 54 56 58 58 57 58 61 63 64 66 67 68 69 70 70 69 69 68 67 66 65 64 64 63 63 64 64 65 66 66 67 67 68 68 68 68 68 68 68 68 67 67 67 68 68 68 69 69 69 70 70 71 71 71 71 71 71 71 71 72 72 73 73 73 74 74 74 75 76 76 76 75 74 73 72 71 70 69 67 66 67 67
48 47 47 47 48 50 52 53 54 55 58 60 63 64 66 67 67 68 68 68 68 68 68 68 67 67 66 66 66 66 66 66 66 66 67 67 68 68 69 69 69 69 69 68 68 69 70 70 70 71 71 72 72 73 74 74 75 75 75 75 75 76 76 76 77 77 77 78 78 78 78 79 79 79 78 77 75 73 72 70 69 67 67 67 66
50 50 49 49 48 48 49 51 52 53 54 56 58 60 62 64 66 67 67 68 68 68 69 70 70 70 70 70 70 70 71 70 70 69 68 68 68 69 69 70 70 70 71 71 71 71 72 72 72 73 74 74 75 76 77 77 78 78 79 79 80 80 81 81 81 82 82 82 82 82 82 82 82 81 80 79 77 75 73 71 70 69 68 68 67
52 53 55 55 54 53 53 54 55 56 56 56 57 57 59 61 63 64 65 66 67 67 68 69 70 71 71 71 72 72 73 73 73 73 72 72 71 71 71 71 72 72 72 72 72 73 74 74 74 75 76 76 77 78 78 79 80 81 81 81 82 83 84 85 85 86 86 86 86 86 85 84 83 82 81 79 77 75 74 72 70 69 69 68 68
48 50 52 54 55 56 56 56 56 57 57 58 59 59 60 61 63 64 66 66 68 69 70 71 71 71 72 72 73 73 73 73 73 74 74 74 74 73 72 72 73 74 74 75 75 76 76 77 77 78 78 78 79 79 79 79 80 80 80 80 80 80 81 82 82 83 84 84 84 84 83 82 80 79 78 76 74 73 72 70 69 68 68 68 68
48 48 50 51 52 52 51 51 51 52 53 54 54 55 55 57 58 60 61 63 65 67 68 69 70 69 70 70 71 72 72 72 72 73 73 73 73 73 73 73 73 74 75 75 76 76 77 77 77 77 76 76 76 76 75 75 75 75 75 75 75 75 76 76 76 77 77 77 78 78 78 77 76 75 74 73 73 71 70 68 67 67 67 68 68
50 51 51 52 52 51 51 51 51 52 52 53 53 54 54 54 54 55 56 57 58 60 61 63 64 65 66 66 67 68 69 70 70 71 71 71 71 72 72 71 70 70 71 72 72 72 72 71 71 71 71 70 70 70 70 69 69 69 69 69 70 70 70 70 70 70 71 71 72 72 72 72 72 72 72 71 70 69 67 66 66 66 67 68 69
52 52 53 53 54 55 55 56 56 56 56 56 56 56 57 57 56 56 57 57 57 58 58 59 60 62 63 64 64 65 65 66 66 66 67 67 68 68 68 68 68 68 68 68 68 69 69 68 68 68 68 68 68 68 68 68 68 68 69 69 69 70 70 70 70 69 69 68 68 68 68 67 67 67 67 67 66 65 65 65 65 66 67 68 69
53 54 55 56 57 57 58 59 58 58 58 57 57 57 57 57 57 57 56 56 56 56 56 56 57 58 59 61 62 63 63 64 64 64 64 65 65 65 65 66 66 66 66 65 66 67 68 68 68 68 68 68 68 68 68 68 67 67 68 68 69 70 70 71 72 72 72 71 70 69 68 67 66 66 65 65 64 64 64 64 64 65 66 67 69
55 55 56 57 57 58 58 58 57 57 56 56 56 56 55 55 55 55 55 55 55 54 54 54 54 54 55 57 58 60 61 61 62 62 63 63 64 64 64 64 64 65 65 65 64 64 64 65 65 66 66 66 66 66 65 65 65 65 65 66 66 66 67 68 69 69 70 71 71 71 71 71 69 68 66 65 64 64 64 65 64 64 65 66 68
52 53 53 54 54 55 55 55 55 55 54 54 54 53 53 53 53 53 52 53 53 53 52 52 52 53 53 54 55 56 58 59 60 61 61 62 63 63 63 63 64 64 64 64 64 63 63 62 62 63 63 64 64 64 65 65 65 66 66 67 67 67 67 67 67 67 68 69 69 70 71 71 71 71 69 67 64 62 62 62 63 63 64 64 65
49 50 50 50 51 51 52 52 53 53 53 53 53 53 52 52 52 52 51 51 51 52 52 52 53 53 54 54 54 55 56 57 58 59 61 61 62 62 63 64 64 64 64 64 64 64 64 63 63 64 64 65 66 67 67 68 69 69 69 70 70 69 69 69 69 69 69 70 70 71 71 71 70 70 69 67 66 63 60 59 59 61 61 62 62
48 49 49 50 50 50 51 51 51 52 52 53 53 53 53 53 53 53 53 53 53 53 54 54 55 55 56 56 56 57 57 57 58 59 60 62 63 63 64 65 66 66 66 67 67 68 68 68 68 69 69 70 71 72 72 73 73 74 74 74 74 74 74 74 74 74 74 74 74 74 74 73 72 71 69 68 67 65 63 61 61 61 61 61 61
49 49 50 50 51 51 51 52 52 52 52 52 53 53 54 54 54 55 55 55 55 56 56 57 57 58 59 59 60 61 61 61 61 62 62 64 65 66 67 68 69 70 71 71 72 73 74 74 74 75 76 76 77 77 77 78 78 79 79 79 79 79 79 79 79 80 80 80 80 79 79 78 77 75 73 71 70 68 67 66 64 63 62 62 62
49 50 50 50 51 51 51 52 52 52 52 53 53 54 54 55 55 56 56 57 58 58 59 59 60 61 62 63 63 64 65 65 66 67 67 68 69 70 72 73 74 75 75 76 77 78 79 80 80 81 81 82 82 82 82 82 82 83 84 84 84 85 85 85 85 85 85 85 85 84 84 83 81 79 76 75 73 72 71 69 67 65 63 63 63
50 50 50 51 51 51 51 52 52 53 53 53 54 54 55 55 56 57 57 58 59 60 61 61 62 63 64 65 66 67 68 69 70 70 71 72 73 74 76 77 78 79 80 80 82 83 83 84 84 84 84 85 85 86 86 86 87 87 88 88 88 89 89 89 90 90 90 90 90 89 88 86 84 82 80 78 76 75 74 73 71 69 67 65 64
52 52 52 52 52 53 53 53 54 55 55 55 56 56 57 57 58 59 60 60 61 62 63 64 65 66 67 68 69 70 71 72 73 74 75 76 77 78 79 80 81 82 83 83 84 85 86 87 87 87 88 88 89 90 91 91 91 92 92 93 93 93 93 93 94 95 95 95 94 93 91 90 88 86 84 82 80 79 77 75 74 73 72 71 70
54 54 55 55 55 55 56 56 56 57 57 57 58 58 59 60 61 62 63 63 64 65 66 66 67 68 69 70 71 72 74 75 76 77 78 79 80 81 82 83 84 85 85 86 87 88 89 90 91 92 92 93 93 94 95 95 96 96 96 97 97 98 98 98 99 99 99 99 97 96 95 94 92 90 89 87 85 83 81 79 77 77 76 75 75
57 57 57 57 58 58 58 58 58 59 59 59 60 61 62 62 63 64 65 66 67 68 69 70 70 72 73 74 75 76 77 78 79 81 82 83 83 84 85 86 87 88 89 90 91 92 93 94 96 97 97 98 98 99 100 101 102 103 103 104 105 105 105 105 105 105 104 103 101 100 99 98 96 94 93 91 90 88 86 83 81 79 78 77 77
60 59 59 60 60 60 61 61 61 62 62 63 63 64 65 66 67 68 68 69 70 71 72 74 75 76 77 78 79 81 82 83 83 85 86 87 88 89 90 91 92 93 95 96 97 99 100 102 103 104 105 106 107 107 108 109 110 111 112 113 114 114 114 114 113 112 111 109 107 104 103 101 99 98 97 95 93 91 88 85 83 80 79 78 77
62 62 62 62 62 63 63 63 64 64 65 65 66 67 68 69 70 71 72 73 74 75 76 77 79 80 81 83 84 85 86 87 89 90 91 93 94 96 97 98 100 101 102 104 105 106 108 110 111 112 113 114 115 116 117 117 118 119 120 120 121 121 120 119 118 117 116 114 112 109 107 104 102 100 99 97 96 94 91 88 86 83 81 79 77
64 64 64 64 65 65 65 66 66 67 67 68 69 70 71 72 73 74 75 76 78 79 80 81 83 84 85 86 88 89 91 92 94 95 97 98 100 101 103 105 106 107 109 110 112 113 115 116 117 118 118 118 119 119 118 118 118 118 118 117 117 116 116 115 114 112 111 110 108 107 106 104 102 101 99 98 97 95 94 91 88 86 84 82 80
66 66 66 66 66 67 67 68 68 69 70 71 72 73 74 75 76 77 78 80 81 82 83 84 86 87 88 90 91 93 95 96 98 100 101 103 105 107 108 110 111 112 113 114 114 113 113 111 110 108 106 105 104 103 102 102 102 102 102 101 101 101 101 101 101 101 101 101 101 101 100 100 100 99 98 98 97 96 94 92 90 88 86 84 82
Wind_Direction
254 255 256 255 256 257 260 262 265 267 269 270 270 270 269 267 265 263 261 260 260 260 260 261 261 262 263 264 264 265 264 264 264 264 265 265 265 265 265 266 267 267 265 261 260 259 259 258 259 261 262 262 262 263 263 264 266 269 272 275 277 280 283 285 288 289 289 291 294 297 300 303 305 305 306 307 308 311 312 311 309 308 307 307 307
254 254 255 256 256 257 259 261 263 265 267 270 272 273 272 269 267 264 262 261 261 260 260 260 261 262 263 264 264 264 263 262 262 263 264 264 264 264 264 265 265 265 264 261 259 259 258 258 259 260 260 261 261 262 263 264 266 269 272 274 276 279 282 284 287 289 290 290 292 296 298 300 303 303 304 306 307 309 311 310 308 307 307 308 308
253 253 254 256 257 259 260 261 262 263 266 269 273 274 273 270 267 265 263 262 261 261 260 260 261 262 262 262 262 262 262 261 261 261 262 262 262 262 262 263 264 264 263 261 259 258 257 258 259 260 260 260 261 263 264 265 267 269 271 273 276 278 280 283 285 288 290 290 292 294 296 298 301 302 303 305 306 308 310 309 308 306 306 308 308
252 253 253 255 257 259 261 262 263 263 265 268 271 272 272 270 267 265 263 262 261 260 261 261 261 262 261 260 260 260 259 259 259 259 259 260 260 260 261 262 263 263 261 259 258 257 257 258 259 260 260 260 262 264 265 266 268 270 271 273 275 277 279 281 284 286 289 290 291 292 294 298 300 301 302 304 305 306 308 308 307 306 306 309 309
252 252 252 254 256 258 260 262 263 264 265 267 269 270 270 270 269 267 264 263 262 261 262 262 262 261 260 259 258 258 257 257 257 258 258 259 260 260 261 261 261 261 259 258 257 256 257 258 259 261 261 262 264 265 266 267 268 270 271 273 275 277 278 280 283 285 287 290 291 291 294 297 299 300 301 302 303 304 306 306 305 305 308 310 309
252 252 252 252 254 257 259 260 262 262 263 265 267 268 269 269 270 269 267 265 264 263 263 262 261 261 260 259 258 257 256 256 257 258 258 259 260 260 260 260 259 259 257 257 256 256 257 258 260 261 262 263 265 266 266 268 269 270 271 273 274 276 278 280 282 284 286 289 290 291 293 295 297 299 300 301 302 303 303 304 304 306 308 309 308
254 252 251 251 253 255 257 258 259 260 261 262 264 266 267 267 269 269 268 266 265 264 264 262 261 261 260 259 259 258 257 257 257 258 259 260 261 261 260 259 258 257 257 257 257 257 258 259 260 261 262 264 265 266 267 267 269 270 271 273 274 276 278 280 282 284 286 289 290 291 293 295 297 298 299 299 301 301 301 302 304 306 307 309 309
257 254 252 251 251 253 255 256 257 257 258 259 262 263 264 264 265 266 266 266 266 265 264 263 262 262 262 261 260 259 259 259 259 259 260 260 261 261 260 259 258 258 258 258 258 258 259 259 260 261 262 263 264 265 267 268 269 270 272 273 274 276 278 280 282 284 286 288 289 291 293 295 296 297 298 298 299 299 300 302 304 305 306 309 309
258 258 256 253 252 252 253 255 256 256 257 258 259 260 260 260 261 263 264 265 264 264 263 264 264 265 264 262 261 261 261 261 261 261 261 261 260 260 260 259 260 259 259 259 259 259 259 260 260 261 262 263 264 266 267 269 270 271 272 273 275 277 279 280 282 284 286 287 289 291 293 295 296 296 297 297 297 298 299 301 304 304 306 309 307
255 258 259 258 255 254 253 254 254 255 256 256 256 256 256 256 257 258 260 261 262 263 263 264 264 264 263 262 262 262 262 262 262 262 262 262 261 261 260 260 260 260 260 260 260 260 260 260 260 261 262 264 265 267 268 269 271 272 273 275 276 278 279 280 282 284 285 287 288 290 293 296 297 296 296 296 296 298 298 300 303 304 306 307 304
252 255 257 259 259 257 256 255 254 254 254 254 254 253 253 252 253 254 256 257 259 260 262 262 263 262 262 262 262 262 262 263 263 263 263 262 262 261 261 261 261 261 261 261 261 261 261 261 262 263 264 265 267 268 269 270 272 273 274 276 277 278 280 281 282 284 285 287 289 291 294 297 297 295 295 296 296 297 298 300 302 303 304 305 303
249 251 254 256 258 259 258 257 256 255 254 252 252 251 251 251 250 251 252 253 256 258 260 261 262 262 262 262 262 262 263 263 263 264 264 264 263 262 261 261 261 262 262 262 262 263 263 263 264 264 266 267 268 269 270 272 273 274 275 276 278 279 280 282 283 284 286 287 290 292 295 296 296 295 295 295 296 297 299 300 301 301 303 303 301
248 248 250 253 255 258 259 259 258 257 255 254 252 251 250 251 250 250 251 252 254 256 259 260 261 262 262 262 262 262 263 264 264 264 265 265 265 264 263 263 263 263 263 264 264 264 265 266 266 267 268 268 269 271 272 273 274 275 276 277 278 280 281 283 284 285 286 289 291 293 295 296 295 294 294 294 296 298 299 299 299 300 301 301 298
249 248 248 250 251 254 256 257 258 258 257 256 255 254 253 253 252 253 253 253 254 255 257 259 261 262 262 262 262 262 263 264 265 265 266 266 266 266 265 265 265 265 265 265 265 266 266 267 268 269 269 270 271 272 273 274 275 276 277 278 279 280 282 283 284 285 287 290 291 292 294 295 294 293 293 294 296 297 298 299 298 299 299 298 296
251 250 249 249 250 251 252 254 255 256 256 256 256 256 256 256 256 256 255 255 255 256 256 257 259 260 261 262 262 262 263 263 264 265 265 266 266 266 266 266 266 266 266 266 266 267 267 268 269 269 270 271 272 272 273 274 275 276 277 278 279 280 281 282 282 284 288 291 291 292 292 292 292 292 293 294 295 296 297 297 297 297 297 296 294
256 254 251 250 251 252 252 252 252 253 254 255 255 255 256 258 259 259 259 259 258 258 258 258 258 259 260 261 262 262 262 262 263 264 264 265 266 266 266 267 267 267 267 268 268 268 268 269 270 270 271 272 272 273 273 274 274 275 276 277 278 279 280 281 281 284 288 290 290 290 290 290 290 291 292 293 294 295 295 295 295 295 294 293 293
258 258 256 253 252 253 254 254 253 252 253 253 254 254 255 257 259 260 260 261 261 261 261 261 261 261 261 261 261 262 262 262 263 263 264 264 265 266 267 267 268 269 269 269 270 270 270 271 271 271 272 272 272 273 273 273 274 275 276 277 278 279 280 280 281 284 287 287 288 289 289 289 289 290 291 292 292 292 292 293 293 292 292 293 294
257 257 258 257 255 254 255 256 256 255 254 253 253 254 255 256 258 259 259 260 261 262 262 263 263 263 263 262 262 263 263 263 263 263 264 264 265 266 266 267 268 269 270 270 270 271 272 272 272 273 273 272 272 272 273 274 274 275 276 276 277 279 280 279 280 283 285 286 287 288 288 288 289 289 290 290 290 290 290 291 291 291 292 293 293
257 256 258 259 260 258 257 257 258 257 256 254 253 253 254 255 257 258 259 259 260 260 261 261 261 262 262 263 263 263 264 264 263 263 264 264 265 265 266 267 268 269 269 270 271 271 272 273 273 273 273 273 273 273 274 274 274 275 275 275 277 279 279 279 281 284 285 285 286 287 287 287 287 287 288 288 288 288 289 290 290 291 292 292 292
258 257 258 259 260 261 260 260 260 259 258 256 254 253 253 255 256 258 259 259 259 259 259 259 259 259 260 261 262 262 262 263 263 263 263 264 265 265 266 267 268 268 269 270 271 272 272 272 272 272 272 272 272 273 273 274 274 275 276 277 279 280 280 281 283 284 284 284 284 285 285 285 284 284 285 286 287 288 289 290 290 291 291 291 292
260 259 258 258 258 259 260 261 261 260 259 258 256 255 254 254 255 257 258 259 260 260 259 259 258 258 258 259 259 260 260 261 261 262 262 263 264 265 266 267 268 268 269 270 271 272 272 273 273 273 273 273 274 274 275 275 276 277 278 280 280 280 280 280 281 281 282 282 282 282 282 282 282 283 284 285 287 288 289 290 290 291 291 292 293
260 260 258 256 256 257 259 259 259 259 258 257 257 257 256 255 254 255 256 258 259 260 260 259 259 258 258 258 258 259 260 260 261 261 262 262 263 264 265 266 267 267 268 269 270 271 271 272 273 274 274 275 275 276 276 277 278 279 279 280 279 279 278 279 279 280 281 281 281 281 281 281 282 283 285 287 288 289 290 290 290 291 291 292 292
260 260 259 257 256 257 258 259 258 257 256 256 256 257 257 256 255 254 254 255 257 258 259 260 260 260 260 260 259 260 260 261 261 262 262 263 264 264 265 265 266 267 268 268 269 269 270 271 272 273 274 274 274 275 276 277 277 278 278 278 278 278 278 279 279 280 280 280 279 279 280 281 282 284 286 288 288 288 289 289 290 290 291 291 291
259 259 260 260 260 258 257 257 256 256 256 256 257 258 258 258 257 256 255 255 255 256 257 258 259 260 261 261 261 261 262 262 262 262 263 263 264 264 264 265 265 266 267 268 268 269 269 270 271 272 272 273 273 274 275 276 276 276 276 276 276 277 278 279 279 279 279 278 278 278 280 281 283 285 286 286 287 288 289 290 290 290 290 290 290
262 260 258 259 260 259 257 256 255 255 256 256 256 257 258 258 259 258 258 257 256 256 256 257 258 259 260 261 262 262 262 262 262 262 263 263 263 263 264 264 265 265 266 267 267 268 269 270 270 271 272 273 273 274 275 275 275 275 275 276 276 277 278 278 278 278 278 278 278 279 280 282 283 284 285 286 288 289 290 290 289 289 289 289 289
263 260 255 253 254 255 255 254 254 254 254 254 255 256 257 258 259 260 260 260 259 258 257 257 257 257 258 260 261 262 262 262 262 262 262 262 262 263 263 264 264 265 265 266 267 268 269 269 270 271 272 273 273 274 274 274 274 274 275 275 276 276 277 277 277 277 277 277 278 279 280 281 282 283 285 287 289 289 289 288 288 288 288 288 288
259 254 248 246 248 249 248 248 248 249 251 252 253 255 256 258 259 260 261 262 262 262 262 261 259 258 258 258 260 261 262 262 262 262 262 262 262 263 263 264 264 265 265 266 267 268 269 269 270 270 271 271 271 272 272 272 272 273 273 273 274 274 274 274 275 276 276 277 277 278 279 279 280 283 286 288 289 289 288 287 287 287 287 287 288
261 258 252 249 249 248 248 246 243 244 246 249 251 254 255 257 258 260 261 262 263 265 265 265 265 264 262 261 260 261 261 262 262 263 263 264 264 264 265 265 265 265 265 266 266 267 267 268 268 268 269 269 269 269 270 270 271 271 272 272 272 273 273 273 274 275 276 276 277 278 279 279 281 283 285 287 288 288 287 287 286 286 287 287 289
261 262 259 257 254 253 254 253 250 247 246 246 248 251 253 255 257 258 259 261 262 264 265 267 268 268 268 267 266 265 265 264 264 264 264 265 266 266 266 267 267 267 267 267 267 267 267 267 268 268 268 268 269 269 269 270 270 271 271 271 272 272 273 273 274 275 276 276 278 279 280 281 282 283 285 287 288 288 288 287 287 286 287 288 289
260 261 260 260 258 257 257 258 257 256 253 252 252 252 252 253 255 256 257 258 259 261 262 264 266 267 268 269 269 268 268 268 267 267 266 265 266 266 266 267 267 267 268 268 268 268 268 269 269 269 269 270 270 270 270 270 271 271 271 271 272 272 273 274 274 275 276 277 278 280 281 282 283 284 286 287 288 289 289 289 288 287 287 286 286
258 259 259 258 258 258 258 258 258 259 258 258 258 258 257 257 258 258 259 259 260 261 263 264 265 266 267 268 268 269 269 269 270 269 269 269 269 268 268 268 269 269 269 270 270 269 270 270 270 270 271 271 271 271 272 272 272 272 272 272 273 273 273 274 274 275 276 277 279 280 281 282 283 284 286 287 288 290 291 291 290 288 286 285 284
258 258 258 257 257 256 256 256 257 257 258 259 260 260 261 261 261 261 261 262 262 263 264 264 264 265 265 266 267 267 268 268 269 270 270 270 271 271 271 271 271 271 272 272 272 272 273 273 273 273 274 274 274 275 275 275 275 275 275 275 275 275 275 275 275 276 277 278 279 280 281 282 283 284 286 287 289 290 291 291 290 288 286 285 284
261 261 261 261 259 258 258 258 258 258 258 259 259 259 259 259 259 260 260 261 261 261 261 261 262 262 262 263 263 264 265 266 266 267 268 268 269 269 270 271 272 272 273 274 274 275 275 275 275 276 276 276 277 277 277 277 278 278 278 278 278 278 278 278 278 278 279 279 280 281 282 283 284 285 286 287 288 289 290 290 289 286 284 284 283
261 262 263 263 262 262 262 262 262 262 262 263 263 263 263 261 261 261 262 262 262 262 262 262 262 262 263 263 263 264 264 265 266 267 268 269 269 270 270 272 273 274 275 275 276 276 276 276 277 277 277 277 277 278 278 279 279 279 280 280 281 281 281 282 282 282 283 283 284 284 285 285 286 287 288 288 289 290 290 288 286 283 282 281 281
258 260 261 263 264 265 267 268 269 270 270 270 270 270 270 270 269 269 269 270 269 269 269 269 269 269 269 269 269 269 269 269 270 271 272 272 273 273 273 274 276 277 277 277 277 277 278 278 278 278 278 278 278 278 279 279 280 280 281 281 282 282 283 284 285 285 286 287 288 288 289 289 290 290 291 291 291 291 290 289 286 284 282 281 281
257 259 260 262 264 266 269 271 272 272 272 272 272 272 273 273 272 272 272 272 272 273 274 274 275 275 275 275 275 275 275 275 276 276 276 277 277 277 277 277 278 278 279 279 280 280 280 280 280 281 281 281 281 281 282 282 282 283 283 284 284 284 285 286 286 287 288 289 289 290 290 291 292 292 292 292 292 292 291 289 288 286 284 283 282
258 259 260 261 263 264 266 268 269 270 271 271 272 272 273 273 273 273 273 273 273 273 273 274 275 276 277 277 278 278 279 279 279 279 280 280 280 279 279 279 279 280 280 280 281 281 281 282 282 282 283 284 285 286 287 288 289 289 290 291 291 291 292 292 293 293 293 294 294 294 293 293 292 292 292 292 292 291 290 289 287 285 284 283 282
259 259 259 260 261 263 264 265 266 267 268 269 270 271 271 272 272 273 273 273 273 274 274 274 274 275 275 276 277 278 279 279 279 279 280 280 280 280 279 279 280 280 280 280 280 281 282 282 283 284 285 285 287 288 289 290 291 292 293 294 294 295 295 296 296 297 297 298 298 298 298 297 296 295 294 293 291 290 288 287 286 284 283 282 281
259 259 260 260 260 261 263 264 266 267 267 269 269 270 271 272 272 273 273 273 274 274 274 274 273 273 273 273 274 275 276 277 278 278 278 278 279 279 279 279 280 280 280 280 280 281 282 283 284 284 285 286 287 288 288 289 290 290 291 292 292 293 293 293 294 294 295 295 296 296 297 297 297 297 297 296 294 292 289 287 285 284 283 283 282
261 261 261 261 261 262 262 263 264 265 267 268 269 269 270 271 271 272 273 273 274 274 274 274 274 273 273 272 272 272 273 274 275 276 277 277 278 278 278 279 279 279 279 280 280 281 281 282 283 283 284 285 285 286 286 286 287 287 288 289 289 290 290 291 291 291 291 291 292 292 292 293 293 294 295 295 296 295 294 292 290 288 287 287 286
261 262 263 263 263 263 263 262 262 263 264 264 265 266 267 268 269 270 271 272 272 273 273 273 274 274 273 273 272 272 272 272 273 273 274 275 276 277 277 278 278 279 280 280 280 281 281 282 282 283 283 283 284 284 284 285 285 286 286 287 287 288 289 289 290 290 289 289 289 289 289 289 289 290 290 291 292 294 295 294 293 292 291 290 290
261 262 263 264 264 264 264 263 262 262 263 263 263 264 264 265 266 267 268 269 270 270 271 272 272 273 273 273 273 273 273 273 273 273 273 274 274 275 276 277 277 278 279 279 280 280 281 281 282 282 283 283 283 283 284 284 285 286 286 286 287 287 288 288 288 288 288 288 288 287 287 287 287 287 287 287 288 289 289 290 291 291 291 290 290
263 263 263 264 265 265 265 265 265 265 265 265 265 265 265 266 266 266 267 267 268 269 269 270 271 271 272 272 273 273 273 273 274 274 274 275 275 276 277 277 278 279 279 280 280 281 281 282 282 283 283 283 284 284 284 285 285 286 286 286 286 286 286 287 287 287 287 286 286 286 285 285 285 285 285 285 284 285 285 285 286 287 288 288 288
266 266 266 266 266 267 267 267 268 268 269 269 270 270 270 270 270 271 271 271 271 272 272 272 272 273 273 274 274 275 275 275 276 276 277 277 277 278 278 279 279 279 280 280 281 281 281 282 282 283 283 284 284 284 285 285 285 285 285 285 285 285 286 286 286 285 285 285 284 284 284 283 283 282 282 282 282 282 282 282 282 283 284 284 285
270 269 269 269 269 270 270 270 271 271 272 272 273 273 274 274 275 275 275 276 276 276 276 276 276 276 277 277 277 277 278 278 278 278 278 278 278 278 279 279 279 279 279 280 280 281 282 282 283 283 284 284 285 285 285 285 285 285 284 284 284 284 285 285 284 284 283 283 282 282 281 281 280 280 280 279 279 279 279 279 280 281 282 282 283
270 270 270 270 271 271 271 272 272 272 273 273 274 275 275 276 277 277 277 278 278 278 278 278 279 279 279 279 280 280 280 281 281 281 281 281 281 281 281 281 281 282 282 282 282 283 283 283 283 283 283 283 283 283 282 282 282 282 282 282 282 282 282 282 281 280 280 280 279 279 278 278 277 277 277 276 276 276 276 276 276 277 278 279 281
268 268 269 269 270 271 271 272 273 273 274 274 275 276 276 277 278 278 279 279 280 280 280 281 281 282 282 282 283 283 284 284 284 285 284 284 284 284 284 283 283 283 283 282 282 282 281 281 281 281 280 280 280 280 279 279 279 279 279 279 279 279 279 279 278 277 277 277 276 275 275 274 274 274 273 273 272 272 272 272 272 272 273 274 276
268 268 269 270 270 271 272 273 273 274 275 276 277 277 278 278 279 280 280 281 281 282 282 283 284 284 285 285 285 286 286 286 286 285 285 284 284 283 283 283 282 282 282 281 281 281 281 281 280 280 280 280 280 279 279 279 279 279 279 278 278 278 278 277 276 276 275 275 274 273 272 272 271 270 270 269 268 268 268 267 267 267 267 268 270
269 270 270 271 271 272 273 274 274 275 276 277 277 278 279 279 280 280 281 281 282 283 283 284 284 285 285 285 285 285 285 285 284 284 284 283 283 283 283 283 282 282 282 282 282 282 282 282 281 281 281 281 281 280 280 279 279 279 278 278 278 277 277 276 275 275 274 273 272 271 270 269 268 267 266 266 265 264 264 264 263 263 263 264 265
270 271 271 272 273 273 274 274 275 276 276 277 277 278 279 279 280 281 281 282 283 283 284 284 284 284 285 285 285 285 285 285 285 285 285 284 284 284 284 284 284 284 284 284 284 284 283 283 283 282 282 282 281 280 280 279 279 278 278 277 277 276 276 275 274 273 272 271 270 268 267 266 265 264 263 262 262 261 261 260 260 260 260 261 261
271 272 272 273 273 274 274 275 276 276 277 278 278 279 280 280 281 281 282 283 283 284 284 285 285 286 286 287 287 288 288 288 288 288 288 288 288 288 288 287 287 287 287 287 286 286 285 285 284 283 283 282 281 281 280 279 279 278 278 277 277 276 276 275 274 273 271 270 268 266 264 263 261 260 259 258 258 257 257 257 256 256 257 257 257
Height
5756 5757 5758 5758 5759 5760 5761 5761 5762 5763 5763 5763 5764 5764 5764 5765 5765 5766 5766 5766 5766 5766 5767 5767 5767 5767 5767 5767 5768 5768 5768 5768 5768 5768 5768 5770 5771 5772 5772 5771 5771 5771 5771 5771 5771 5770 5769 5769 5770 5770 5769 5768 5768 5767 5767 5766 5765 5764 5763 5762 5761 5760 5758 5757 5758 5759 5757 5755 5753 5751 5750 5749 5748 5747 5745 5744 5742 5740 5739 5737 5735 5733 5731 5729 5727
5749 5751 5752 5752 5753 5754 5755 5756 5756 5757 5757 5758 5758 5759 5759 5758 5759 5758 5759 5759 5759 5759 5760 5760 5760 5760 5761 5761 5761 5761 5761 5762 5761 5761 5762 5764 5765 5765 5765 5765 5765 5765 5765 5765 5765 5764 5763 5764 5764 5764 5763 5762 5762 5762 5762 5761 5760 5759 5758 5756 5755 5754 5753 5752 5752 5753 5753 5750 5748 5747 5745 5743 5743 5741 5739 5738 5736 5734 5733 5732 5730 5728 5726 5724 5722
5741 5743 5745 5747 5748 5748 5749 5750 5750 5751 5751 5752 5752 5753 5752 5752 5751 5751 5752 5753 5752 5752 5753 5753 5753 5754 5755 5755 5755 5755 5756 5756 5755 5755 5756 5757 5758 5758 5758 5758 5759 5759 5759 5760 5759 5758 5757 5758 5759 5758 5757 5756 5757 5757 5757 5756 5755 5754 5752 5751 5750 5749 5748 5746 5745 5746 5747 5745 5742 5741 5740 5738 5737 5735 5733 5732 5730 5728 5727 5725 5723 5721 5720 5718 5716
5733 5736 5738 5740 5741 5742 5743 5744 5744 5745 5746 5746 5746 5746 5746 5746 5745 5745 5746 5746 5746 5746 5746 5746 5747 5748 5748 5749 5750 5750 5750 5749 5749 5749 5750 5751 5751 5752 5752 5752 5753 5753 5754 5754 5753 5752 5752 5752 5752 5752 5751 5751 5752 5752 5751 5751 5749 5748 5747 5746 5745 5744 5742 5740 5740 5740 5740 5740 5737 5735 5734 5733 5731 5729 5728 5727 5725 5722 5720 5719 5717 5715 5713 5712 5710
5725 5728 5731 5732 5734 5735 5736 5737 5737 5738 5739 5739 5740 5740 5739 5739 5739 5739 5740 5739 5739 5740 5740 5740 5741 5741 5742 5743 5743 5743 5743 5743 5743 5743 5744 5745 5745 5746 5746 5746 5747 5747 5747 5747 5747 5746 5746 5746 5746 5746 5745 5746 5747 5746 5745 5745 5743 5742 5741 5740 5739 5738 5736 5735 5735 5734 5734 5735 5733 5729 5727 5727 5725 5723 5722 5721 5719 5716 5715 5712 5710 5708 5707 5705 5703
5718 5720 5722 5724 5726 5727 5728 5729 5730 5731 5732 5732 5733 5733 5733 5733 5733 5733 5733 5733 5734 5734 5734 5734 5734 5735 5736 5736 5736 5737 5737 5738 5738 5738 5739 5739 5740 5740 5740 5741 5741 5741 5741 5741 5740 5740 5740 5741 5741 5740 5741 5741 5741 5740 5739 5738 5737 5736 5735 5734 5733 5732 5730 5729 5728 5728 5728 5728 5727 5724 5722 5720 5718 5717 5715 5714 5712 5710 5708 5706 5703 5702 5701 5699 5696
5710 5712 5713 5716 5717 5718 5719 5720 5721 5723 5725 5725 5726 5726 5726 5727 5727 5727 5727 5727 5728 5728 5728 5728 5729 5729 5729 5730 5730 5731 5732 5732 5733 5734 5734 5734 5734 5734 5734 5735 5735 5734 5734 5734 5734 5735 5735 5735 5736 5735 5735 5735 5735 5734 5732 5731 5731 5730 5729 5729 5727 5725 5725 5723 5722 5722 5722 5721 5720 5719 5717 5714 5711 5710 5708 5706 5705 5704 5701 5699 5697 5695 5694 5692 5690
5702 5703 5705 5708 5709 5710 5710 5712 5713 5715 5717 5718 5719 5719 5720 5720 5720 5720 5720 5721 5722 5722 5722 5723 5723 5723 5724 5725 5726 5726 5726 5727 5728 5728 5728 5728 5728 5728 5728 5729 5729 5728 5729 5729 5729 5729 5730 5730 5730 5730 5729 5729 5728 5727 5726 5725 5724 5724 5724 5722 5721 5720 5719 5718 5716 5716 5716 5715 5714 5713 5711 5709 5706 5704 5702 5700 5698 5696 5694 5692 5691 5689 5686 5685 5683
5694 5695 5697 5700 5701 5702 5703 5704 5706 5707 5708 5710 5711 5712 5712 5712 5713 5713 5714 5715 5716 5716 5716 5717 5717 5718 5719 5720 5720 5721 5721 5722 5722 5722 5722 5722 5722 5722 5722 5722 5723 5723 5723 5723 5723 5723 5724 5724 5724 5724 5723 5722 5721 5720 5720 5719 5718 5718 5717 5716 5715 5714 5712 5711 5710 5710 5709 5708 5707 5706 5705 5703 5701 5698 5696 5694 5691 5689 5687 5685 5685 5682 5679 5678 5676
5687 5688 5690 5691 5692 5694 5696 5697 5698 5699 5700 5701 5702 5703 5704 5705 5706 5707 5708 5709 5709 5710 5711 5711 5712 5713 5713 5714 5714 5715 5716 5716 5716 5716 5716 5716 5716 5716 5716 5716 5717 5717 5717 5717 5718 5718 5718 5718 5718 5718 5717 5716 5715 5714 5713 5712 5712 5711 5711 5709 5708 5707 5706 5705 5704 5704 5703 5701 5701 5699 5698 5697 5695 5692 5690 5688 5685 5683 5681 5679 5678 5676 5672 5671 5669
5680 5681 5682 5683 5684 5686 5687 5689 5690 5691 5692 5693 5694 5695 5696 5697 5698 5699 5700 5701 5702 5703 5704 5705 5706 5707 5707 5708 5708 5709 5710 5709 5709 5709 5709 5709 5709 5710 5710 5710 5710 5711 5711 5711 5712 5711 5711 5711 5711 5711 5711 5710 5709 5708 5707 5706 5705 5705 5704 5703 5702 5700 5699 5699 5698 5697 5696 5694 5694 5693 5691 5691 5688 5684 5682 5681 5678 5677 5675 5673 5671 5668 5665 5664 5662
5672 5673 5674 5675 5676 5677 5679 5681 5682 5683 5684 5685 5686 5687 5688 5689 5690 5691 5692 5693 5694 5695 5697 5698 5699 5699 5700 5701 5701 5702 5702 5701 5701 5702 5702 5702 5702 5703 5703 5703 5704 5704 5705 5705 5705 5705 5704 5704 5705 5704 5704 5703 5702 5701 5700 5699 5699 5698 5697 5696 5695 5694 5693 5692 5692 5691 5689 5688 5688 5687 5685 5684 5681 5677 5674 5672 5671 5670 5668 5666 5663 5661 5658 5656 5655
5663 5664 5666 5667 5668 5669 5670 5672 5674 5674 5676 5677 5678 5679 5681 5681 5682 5682 5683 5684 5685 5687 5688 5689 5690 5691 5692 5693 5693 5693 5693 5693 5694 5694 5694 5695 5695 5695 5696 5696 5697 5698 5698 5698 5698 5698 5698 5697 5697 5697 5696 5696 5695 5694 5693 5693 5691 5691 5690 5689 5688 5688 5687 5686 5685 5683 5682 5681 5681 5680 5678 5675 5674 5671 5667 5664 5663 5662 5661 5659 5656 5653 5651 5649 5647
5654 5655 5657 5658 5659 5660 5662 5663 5665 5666 5667 5669 5670 5671 5672 5673 5674 5675 5675 5676 5677 5679 5680 5680 5681 5682 5683 5684 5685 5685 5685 5685 5686 5686 5686 5686 5687 5687 5688 5689 5690 5690 5691 5691 5691 5690 5690 5689 5690 5689 5688 5688 5687 5686 5685 5685 5684 5683 5682 5682 5681 5681 5680 5678 5677 5676 5674 5673 5673 5673 5671 5667 5665 5663 5659 5657 5656 5654 5653 5651 5648 5645 5644 5642 5639
5645 5647 5648 5649 5650 5652 5653 5655 5656 5657 5658 5660 5661 5662 5663 5664 5665 5666 5667 5668 5669 5670 5671 5672 5673 5673 5674 5675 5676 5676 5676 5677 5677 5678 5678 5678 5678 5679 5680 5681 5681 5682 5683 5683 5682 5682 5682 5681 5682 5681 5680 5679 5679 5678 5677 5676 5676 5676 5675 5674 5674 5673 5672 5671 5669 5668 5667 5666 5665 5665 5663 5660 5657 5655 5652 5650 5648 5646 5645 5643 5641 5638 5636 5634 5631
5636 5638 5640 5641 5642 5643 5644 5645 5646 5648 5649 5651 5652 5653 5654 5655 5656 5657 5658 5659 5659 5661 5661 5663 5664 5664 5666 5666 5667 5667 5667 5668 5669 5669 5669 5669 5670 5671 5672 5672 5673 5674 5674 5674 5674 5674 5674 5673 5673 5673 5672 5671 5670 5669 5668 5667 5667 5667 5667 5667 5666 5665 5665 5664 5661 5660 5659 5657 5656 5655 5654 5652 5649 5647 5644 5642 5640 5638 5636 5635 5633 5631 5628 5625 5624
5628 5629 5630 5632 5633 5634 5635 5636 5637 5639 5640 5641 5643 5644 5645 5646 5647 5648 5649 5649 5650 5651 5652 5654 5655 5655 5657 5657 5658 5658 5658 5659 5661 5661 5660 5661 5661 5662 5663 5664 5665 5666 5666 5666 5665 5665 5665 5665 5665 5664 5664 5663 5662 5661 5659 5658 5659 5659 5659 5659 5658 5658 5658 5656 5653 5651 5650 5648 5647 5646 5645 5643 5641 5639 5636 5634 5632 5630 5627 5627 5626 5622 5619 5618 5617
5619 5620 5621 5622 5624 5626 5627 5627 5629 5630 5631 5632 5633 5635 5636 5637 5638 5640 5640 5640 5641 5642 5643 5644 5645 5646 5647 5648 5649 5650 5649 5650 5652 5652 5652 5652 5653 5654 5654 5655 5656 5657 5657 5657 5656 5657 5657 5657 5656 5656 5656 5655 5653 5652 5651 5650 5650 5650 5650 5650 5650 5650 5650 5647 5643 5642 5640 5638 5638 5638 5636 5634 5632 5630 5629 5626 5624 5622 5620 5619 5617 5614 5611 5610 5609
5610 5612 5612 5613 5615 5617 5618 5619 5620 5621 5622 5624 5625 5626 5627 5628 5629 5630 5631 5631 5632 5633 5634 5635 5635 5636 5637 5638 5640 5641 5640 5640 5642 5643 5643 5642 5643 5644 5645 5646 5648 5648 5647 5647 5647 5648 5648 5648 5647 5646 5646 5645 5644 5643 5642 5641 5642 5641 5640 5640 5641 5643 5641 5636 5634 5633 5631 5629 5629 5628 5627 5625 5623 5621 5621 5619 5616 5614 5612 5611 5608 5605 5604 5602 5600
5601 5603 5604 5605 5606 5607 5609 5610 5611 5613 5614 5615 5616 5617 5618 5619 5620 5621 5621 5622 5623 5624 5624 5625 5625 5626 5628 5629 5630 5631 5630 5630 5631 5633 5634 5633 5633 5635 5635 5637 5638 5638 5638 5638 5639 5639 5638 5638 5637 5636 5635 5635 5635 5634 5633 5632 5632 5632 5631 5630 5632 5633 5630 5626 5625 5624 5622 5621 5620 5618 5617 5616 5614 5613 5612 5610 5608 5606 5604 5602 5600 5598 5596 5594 5592
5591 5593 5595 5596 5597 5598 5600 5601 5602 5604 5604 5605 5607 5608 5609 5610 5611 5612 5613 5613 5614 5614 5615 5615 5616 5616 5618 5619 5620 5620 5621 5621 5621 5622 5624 5624 5624 5625 5626 5627 5627 5627 5628 5629 5630 5630 5629 5627 5627 5626 5625 5625 5624 5624 5623 5622 5621 5622 5621 5621 5621 5620 5618 5617 5616 5615 5613 5612 5611 5609 5608 5607 5606 5605 5604 5602 5599 5597 5595 5594 5591 5589 5588 5586 5584
5581 5582 5585 5587 5588 5589 5590 5591 5593 5594 5595 5596 5597 5598 5599 5601 5602 5603 5604 5605 5605 5605 5605 5606 5607 5607 5608 5609 5610 5611 5611 5612 5613 5613 5614 5615 5615 5616 5617 5617 5617 5618 5620 5620 5620 5619 5619 5618 5617 5616 5616 5615 5615 5614 5613 5612 5611 5612 5612 5611 5610 5609 5608 5608 5607 5606 5605 5604 5602 5601 5600 5599 5597 5596 5595 5593 5591 5589 5586 5585 5583 5581 5579 5578 5575
5572 5572 5574 5576 5578 5580 5581 5582 5583 5585 5586 5587 5588 5588 5589 5591 5592 5594 5595 5595 5596 5596 5596 5598 5599 5599 5599 5600 5601 5602 5602 5604 5604 5604 5604 5606 5607 5607 5608 5608 5607 5608 5610 5611 5610 5609 5609 5608 5608 5607 5606 5606 5605 5604 5604 5603 5602 5602 5602 5601 5600 5599 5598 5598 5598 5597 5596 5595 5593 5593 5592 5591 5589 5588 5586 5584 5582 5579 5577 5576 5574 5572 5571 5569 5567
5563 5564 5565 5566 5568 5570 5572 5573 5574 5575 5576 5577 5578 5579 5580 5581 5582 5583 5584 5586 5586 5586 5587 5589 5590 5590 5591 5591 5592 5593 5594 5595 5595 5595 5596 5597 5597 5598 5598 5598 5598 5598 5600 5601 5600 5599 5599 5599 5598 5598 5597 5596 5595 5595 5594 5594 5593 5592 5592 5591 5590 5589 5588 5588 5587 5587 5586 5586 5585 5585 5584 5582 5580 5579 5577 5575 5572 5570 5568 5567 5565 5564 5562 5560 5558
5556 5556 5557 5558 5559 5560 5562 5563 5565 5566 5568 5568 5569 5570 5571 5572 5573 5574 5575 5576 5577 5577 5578 5579 5580 5581 5582 5582 5582 5583 5584 5585 5585 5586 5587 5587 5586 5587 5587 5588 5588 5588 5589 5590 5589 5589 5589 5589 5588 5587 5586 5586 5585 5585 5584 5584 5582 5582 5581 5580 5580 5579 5579 5578 5577 5576 5577 5577 5576 5576 5575 5573 5571 5570 5568 5565 5563 5561 5559 5558 5556 5554 5552 5550 5548
5547 5547 5548 5550 5551 5551 5552 5554 5555 5557 5559 5560 5560 5561 5562 5563 5564 5565 5566 5567 5568 5569 5570 5571 5572 5572 5572 5573 5572 5572 5574 5575 5576 5576 5576 5576 5576 5576 5577 5577 5577 5578 5579 5579 5579 5579 5579 5578 5577 5576 5575 5575 5575 5574 5574 5573 5572 5571 5571 5570 5570 5570 5569 5568 5567 5567 5567 5567 5566 5566 5565 5563 5562 5560 5558 5556 5554 5552 5550 5548 5546 5544 5542 5540 5538
5539 5539 5539 5541 5542 5542 5543 5544 5546 5548 5550 5551 5552 5553 5554 5555 5556 5557 5558 5559 5559 5560 5561 5562 5563 5563 5564 5564 5563 5563 5564 5565 5566 5566 5565 5566 5566 5566 5566 5566 5566 5567 5567 5568 5568 5569 5568 5566 5566 5565 5565 5564 5564 5563 5563 5562 5562 5561 5561 5560 5560 5560 5559 5558 5557 5557 5557 5556 5556 5555 5554 5553 5552 5550 5548 5546 5545 5543 5540 5538 5536 5535 5533 5530 5528
5531 5531 5531 5532 5533 5533 5534 5536 5537 5539 5540 5542 5543 5544 5545 5546 5547 5548 5549 5550 5551 5552 5553 5553 5554 5554 5555 5555 5554 5553 5554 5555 5556 5556 5555 5556 5556 5556 5556 5556 5556 5556 5557 5557 5558 5558 5556 5555 5555 5554 5554 5554 5553 5552 5552 5552 5551 5551 5551 5550 5550 5550 5549 5549 5548 5547 5547 5546 5545 5544 5543 5542 5541 5540 5538 5537 5535 5534 5531 5528 5526 5524 5522 5519 5518
5523 5523 5523 5524 5525 5525 5527 5528 5528 5529 5531 5533 5534 5536 5537 5538 5539 5540 5541 5542 5543 5543 5544 5544 5544 5545 5545 5545 5545 5544 5544 5544 5545 5546 5546 5546 5546 5546 5546 5546 5546 5546 5546 5547 5548 5547 5545 5544 5544 5544 5543 5543 5543 5542 5541 5541 5541 5541 5541 5540 5540 5539 5539 5538 5538 5537 5536 5535 5534 5534 5532 5531 5530 5529 5528 5527 5525 5524 5521 5518 5516 5513 5511 5509 5508
5516 5516 5516 5516 5517 5518 5519 5520 5521 5522 5523 5524 5525 5526 5528 5529 5530 5531 5532 5533 5534 5534 5534 5535 5535 5535 5536 5536 5536 5535 5534 5534 5535 5535 5536 5536 5537 5536 5536 5536 5536 5536 5536 5537 5538 5536 5535 5535 5534 5533 5533 5533 5532 5532 5531 5531 5531 5530 5530 5529 5529 5528 5528 5527 5526 5526 5525 5524 5523 5522 5521 5520 5519 5518 5517 5516 5515 5513 5511 5508 5505 5503 5500 5499 5498
5508 5508 5509 5509 5510 5511 5512 5513 5514 5515 5515 5516 5517 5518 5519 5519 5520 5522 5523 5524 5524 5525 5525 5525 5525 5526 5526 5526 5526 5526 5525 5525 5525 5525 5526 5526 5526 5526 5526 5526 5526 5526 5526 5527 5527 5525 5525 5525 5524 5523 5522 5522 5522 5521 5521 5520 5520 5519 5519 5519 5518 5517 5516 5516 5515 5514 5514 5513 5512 5510 5510 5509 5507 5506 5505 5504 5503 5501 5499 5497 5494 5492 5491 5489 5487
5500 5501 5501 5501 5502 5503 5504 5505 5506 5507 5508 5509 5509 5510 5510 5511 5511 5512 5513 5514 5515 5515 5515 5515 5515 5515 5516 5516 5516 5515 5516 5516 5516 5516 5516 5517 5517 5516 5516 5515 5515 5515 5516 5516 5516 5514 5514 5514 5514 5512 5512 5512 5511 5510 5510 5510 5509 5508 5508 5508 5507 5505 5505 5504 5503 5502 5502 5501 5499 5499 5498 5496 5495 5494 5493 5492 5490 5489 5487 5485 5484 5482 5480 5478 5476
5492 5493 5493 5493 5494 5494 5495 5496 5497 5498 5499 5500 5500 5501 5502 5502 5502 5502 5503 5504 5505 5505 5505 5505 5505 5505 5505 5505 5505 5505 5505 5505 5506 5506 5506 5507 5506 5507 5507 5506 5505 5505 5505 5505 5505 5504 5503 5503 5503 5502 5501 5500 5500 5499 5499 5498 5497 5497 5496 5496 5495 5494 5493 5492 5491 5490 5489 5488 5487 5486 5485 5484 5483 5482 5481 5480 5479 5478 5476 5475 5473 5471 5469 5468 5466
5485 5485 5485 5485 5486 5486 5487 5488 5488 5489 5490 5491 5492 5493 5493 5494 5495 5494 5494 5495 5495 5495 5495 5494 5494 5495 5495 5495 5495 5496 5496 5495 5495 5496 5496 5495 5495 5496 5496 5495 5494 5494 5494 5494 5494 5493 5492 5491 5491 5491 5490 5489 5489 5488 5487 5487 5485 5485 5484 5483 5483 5482 5481 5479 5478 5477 5476 5475 5475 5473 5472 5471 5470 5470 5469 5468 5467 5466 5465 5464 5462 5460 5459 5457 5455
5477 5477 5477 5477 5478 5478 5478 5479 5480 5481 5482 5483 5484 5485 5485 5486 5487 5487 5486 5486 5486 5486 5485 5485 5485 5485 5485 5485 5485 5486 5486 5486 5485 5485 5485 5484 5483 5484 5485 5485 5483 5483 5483 5483 5483 5482 5482 5481 5481 5480 5479 5478 5478 5477 5477 5476 5475 5473 5473 5472 5471 5470 5469 5468 5467 5465 5464 5463 5462 5461 5460 5459 5458 5457 5456 5455 5455 5454 5453 5453 5451 5450 5448 5446 5444
5469 5470 5470 5470 5470 5470 5471 5471 5471 5472 5473 5473 5474 5475 5476 5477 5478 5478 5478 5478 5478 5477 5477 5476 5475 5476 5476 5475 5475 5476 5476 5477 5477 5477 5476 5474 5474 5474 5474 5475 5474 5473 5472 5471 5471 5471 5471 5471 5470 5469 5468 5468 5467 5466 5465 5464 5463 5462 5461 5460 5459 5459 5457 5456 5455 5454 5453 5452 5451 5450 5449 5449 5447 5446 5445 5444 5444 5443 5442 5441 5439 5438 5436 5434 5432
5462 5463 5463 5463 5463 5463 5463 5463 5464 5464 5464 5464 5465 5466 5466 5467 5468 5468 5469 5469 5469 5469 5468 5467 5467 5467 5467 5467 5466 5467 5467 5467 5467 5468 5467 5466 5465 5465 5465 5465 5465 5465 5464 5462 5460 5460 5460 5460 5459 5458 5457 5456 5455 5454 5453 5452 5451 5450 5448 5447 5446 5446 5444 5443 5442 5441 5440 5440 5439 5439 5438 5438 5437 5436 5435 5434 5434 5432 5431 5430 5428 5427 5425 5423 5421
5455 5455 5456 5456 5456 5456 5456 5456 5456 5457 5457 5457 5457 5458 5458 5458 5459 5459 5459 5460 5460 5460 5459 5459 5458 5458 5458 5458 5458 5458 5459 5459 5458 5458 5458 5457 5457 5456 5456 5456 5456 5456 5455 5454 5452 5451 5450 5450 5448 5447 5447 5446 5445 5444 5443 5442 5441 5439 5438 5437 5437 5436 5435 5433 5432 5430 5429 5428 5427 5425 5424 5424 5424 5424 5423 5423 5423 5422 5421 5419 5418 5416 5414 5412 5411
5448 5448 5448 5449 5449 5449 5449 5449 5449 5449 5450 5450 5450 5450 5450 5451 5451 5451 5451 5451 5451 5451 5451 5451 5450 5450 5450 5450 5450 5451 5451 5451 5450 5450 5450 5449 5448 5448 5447 5447 5446 5446 5446 5445 5443 5442 5441 5441 5440 5438 5437 5437 5436 5434 5434 5433 5432 5431 5430 5429 5428 5428 5427 5426 5425 5423 5422 5420 5418 5416 5414 5413 5411 5410 5409 5410 5409 5409 5409 5408 5407 5405 5404 5402 5401
5441 5441 5442 5442 5442 5442 5442 5442 5442 5442 5443 5442 5443 5443 5443 5443 5443 5443 5443 5443 5443 5443 5442 5442 5442 5442 5442 5442 5442 5443 5443 5443 5443 5442 5441 5440 5440 5439 5438 5438 5437 5437 5436 5435 5434 5433 5432 5432 5431 5430 5429 5428 5426 5425 5424 5423 5422 5421 5420 5419 5418 5418 5417 5416 5415 5415 5413 5412 5410 5408 5406 5404 5402 5400 5399 5397 5396 5396 5396 5396 5395 5394 5393 5392 5391
5434 5434 5434 5434 5434 5435 5435 5435 5435 5435 5436 5436 5436 5436 5436 5436 5436 5436 5436 5436 5436 5435 5435 5434 5434 5434 5434 5434 5434 5434 5434 5435 5434 5433 5432 5432 5431 5430 5429 5428 5427 5426 5426 5425 5423 5422 5421 5421 5421 5419 5418 5417 5416 5414 5413 5412 5411 5410 5409 5408 5407 5407 5406 5406 5405 5403 5402 5401 5400 5398 5396 5395 5393 5392 5390 5389 5386 5385 5385 5385 5384 5384 5383 5382 5381
5425 5426 5426 5426 5426 5427 5427 5427 5427 5428 5428 5428 5428 5428 5428 5428 5428 5428 5429 5428 5428 5428 5427 5427 5426 5426 5425 5425 5425 5425 5425 5426 5425 5424 5424 5423 5421 5421 5420 5418 5417 5416 5415 5414 5413 5411 5410 5409 5409 5408 5407 5406 5404 5403 5401 5400 5398 5397 5395 5395 5394 5394 5394 5394 5393 5391 5390 5389 5388 5386 5385 5383 5382 5382 5381 5380 5379 5378 5377 5376 5375 5374 5374 5373 5372
5417 5417 5417 5418 5418 5418 5418 5418 5419 5419 5419 5419 5419 5419 5419 5420 5420 5420 5420 5420 5419 5419 5419 5418 5418 5417 5417 5417 5416 5416 5416 5416 5415 5414 5414 5412 5411 5410 5409 5408 5406 5405 5404 5403 5401 5399 5397 5397 5397 5395 5394 5393 5391 5389 5388 5387 5385 5383 5382 5381 5381 5380 5380 5380 5380 5378 5377 5375 5374 5373 5371 5371 5371 5370 5370 5370 5369 5368 5367 5367 5366 5365 5365 5364 5363
5408 5409 5409 5409 5409 5409 5409 5409 5410 5409 5409 5409 5409 5409 5409 5409 5409 5409 5409 5409 5409 5409 5408 5408 5408 5407 5407 5407 5406 5406 5405 5405 5404 5403 5402 5401 5400 5398 5397 5396 5395 5393 5392 5391 5389 5387 5385 5384 5383 5382 5381 5379 5377 5375 5374 5373 5371 5369 5368 5367 5366 5366 5366 5366 5365 5363 5361 5360 5359 5358 5358 5357 5357 5357 5357 5358 5357 5356 5356 5356 5355 5355 5354 5354 5354
5399 5400 5400 5400 5400 5400 5400 5401 5400 5400 5400 5400 5400 5399 5399 5399 5399 5398 5398 5398 5398 5397 5397 5397 5396 5396 5396 5395 5395 5394 5394 5393 5392 5391 5389 5388 5387 5386 5385 5384 5383 5382 5380 5379 5377 5374 5372 5370 5369 5368 5367 5366 5363 5361 5359 5358 5356 5354 5353 5352 5351 5352 5352 5351 5349 5347 5345 5344 5344 5344 5343 5342 5343 5343 5344 5344 5344 5343 5343 5343 5343 5343 5342 5342 5343
5391 5391 5391 5391 5391 5391 5391 5391 5391 5391 5391 5390 5390 5389 5389 5388 5388 5388 5387 5387 5386 5386 5385 5385 5385 5384 5384 5383 5382 5382 5381 5379 5378 5377 5375 5374 5373 5372 5371 5370 5369 5368 5367 5365 5363 5361 5358 5356 5354 5353 5353 5352 5350 5347 5345 5343 5342 5340 5338 5337 5336 5336 5336 5336 5333 5330 5328 5328 5328 5327 5327 5327 5328 5329 5329 5329 5329 5329 5330 5330 5330 5330 5330 5330 5330
5383 5383 5383 5383 5383 5382 5382 5382 5382 5381 5381 5380 5380 5379 5379 5378 5378 5377 5376 5376 5375 5374 5374 5373 5372 5371 5371 5369 5368 5367 5366 5365 5363 5362 5361 5359 5358 5357 5356 5355 5354 5352 5351 5350 5348 5345 5343 5341 5339 5337 5336 5336 5335 5333 5330 5328 5325 5324 5322 5321 5319 5318 5318 5318 5316 5313 5311 5311 5311 5310 5310 5310 5311 5313 5313 5313 5314 5314 5315 5315 5316 5316 5316 5316 5317
5374 5374 5373 5373 5373 5372 5372 5372 5371 5371 5370 5369 5369 5368 5368 5367 5366 5366 5365 5364 5363 5362 5361 5360 5359 5358 5356 5355 5354 5353 5352 5350 5349 5348 5346 5345 5343 5342 5340 5339 5337 5336 5334 5333 5331 5328 5325 5323 5321 5318 5317 5316 5314 5313 5311 5309 5307 5304 5302 5301 5300 5299 5298 5297 5296 5295 5294 5293 5292 5291 5291 5292 5293 5294 5295 5296 5297 5298 5299 5300 5301 5302 5302 5302 5303
5364 5364 5364 5363 5363 5362 5362 5362 5361 5360 5360 5359 5358 5357 5357 5356 5355 5355 5354 5353 5352 5351 5349 5348 5346 5345 5344 5342 5341 5339 5338 5337 5336 5334 5332 5330 5328 5326 5324 5322 5320 5318 5316 5314 5313 5310 5307 5303 5301 5298 5296 5294 5292 5290 5289 5287 5285 5282 5280 5278 5277 5276 5275 5274 5273 5273 5272 5271 5271 5271 5271 5271 5272 5274 5276 5277 5279 5281 5282 5284 5286 5286 5287 5288 5289
5354 5354 5354 5354 5353 5353 5352 5352 5351 5351 5350 5349 5348 5347 5347 5346 5345 5344 5343 5342 5340 5339 5337 5336 5334 5333 5331 5329 5328 5326 5324 5322 5320 5318 5316 5314 5311 5309 5307 5305 5302 5300 5298 5296 5293 5291 5287 5284 5280 5277 5274 5272 5269 5267 5265 5263 5261 5259 5257 5255 5254 5252 5251 5249 5249 5248 5248 5247 5247 5248 5249 5250 5251 5253 5256 5258 5260 5262 5264 5267 5269 5270 5271 5273 5274
5344 5344 5344 5344 5343 5343 5342 5342 5341 5341 5340 5339 5338 5337 5336 5335 5334 5333 5332 5330 5329 5327 5325 5323 5321 5319 5317 5315 5313 5311 5309 5307 5305 5302 5300 5297 5295 5292 5289 5287 5284 5281 5278 5275 5272 5269 5265 5262 5259 5255 5252 5250 5247 5244 5242 5240 5238 5236 5235 5233 5232 5230 5228 5227 5226 5226 5225 5224 5224 5225 5227 5229 5230 5232 5235 5238 5240 5242 5245 5248 5251 5253 5255 5257 5259